Flag for Australia

Past Weather in Lismore, New South Wales, Australia — Yesterday and Last 2 Weeks

Now
54 °F

Cool.


Feels Like: 54 °F
Forecast: 81 / 53 °F
Wind: 2 mph from Southwest

Location: Casino Airport Aws
Current Time: Oct 21, 2020 at 4:08:09 am
Latest Report: Oct 21, 2020 at 3:00 am
Visibility: N/A
Pressure30.02 "Hg
Humidity: 96%
Dew Point: 53 °F
Location of LismoreLocation

Past Weather in Lismore — Graph

°F

Lismore Temperature Yesterday

Maximum temperature yesterday: 76 °F (at 2:00 pm)
Minimum temperature yesterday: 61 °F (at 4:00 am)
Average temperature yesterday: 67 °F

High & Low Weather Summary for the Past Weeks

 TemperatureHumidityPressure
High92 °F (Oct 18, 4:00 pm)100% (Oct 14, 6:00 am)30.27 "Hg (Oct 14, 6:00 am)
Low46 °F (Oct 6, 6:00 am)19% (Oct 18, 4:00 pm)29.76 "Hg (Oct 18, 4:00 pm)
Average68 °F68%30.06 "Hg
* Reported Oct 6 2:00 am — Oct 21 2:00 am, Lismore. Weather by CustomWeather, © 2020

Note: Actual official high and low records may vary slightly from our data, if they occured in-between our weather recording intervals... More about our weather records

Lismore Weather History for the Previous 24 Hours

Scroll right to see more
 ConditionsComfort  
Time TempWeatherWind HumidityBarometerVisibility
2:00 am
Wed, Oct 21
55 °FCool.2 mph96%30.03 "HgN/A
1:00 am56 °FCool.No wind93%30.04 "HgN/A
12:00 am59 °FCool.No wind84%30.06 "HgN/A
11:00 pm
Tue, Oct 20
63 °FMild.No wind79%30.07 "HgN/A
10:00 pm64 °FMild.3 mph73%30.08 "HgN/A
9:00 pm64 °FMild.3 mph73%30.07 "HgN/A
8:00 pm65 °FMild.6 mph66%30.06 "HgN/A
7:00 pm67 °FMild.10 mph62%30.03 "HgN/A
6:00 pm69 °FMild.15 mph58%30.01 "HgN/A
5:00 pm71 °FMild.13 mph52%30.01 "HgN/A
4:00 pm75 °FMild.13 mph43%30.00 "HgN/A
3:00 pm74 °FMild.10 mph46%30.02 "HgN/A
2:00 pm76 °FMild.10 mph47%30.02 "HgN/A
1:00 pm73 °FMild.10 mph47%30.04 "HgN/A
12:00 pm73 °FMild.10 mph51%30.05 "HgN/A
11:00 am73 °FMild.10 mph50%30.06 "HgN/A
10:00 am72 °FMild.9 mph52%30.07 "HgN/A
9:00 am71 °FMild.8 mph59%30.07 "HgN/A
8:00 am67 °FMild.8 mph71%30.06 "HgN/A
7:00 am63 °FMild.5 mph80%30.05 "HgN/A
6:00 am62 °FCool.7 mph83%30.02 "HgN/A
5:00 am61 °FCool.7 mph84%30.00 "HgN/A
4:00 am61 °FCool.5 mph85%30.00 "HgN/A
Weather by CustomWeather, © 2020

See weather overview